Regional Weather Roundup
Issued by NWS

Home | Current Version | Previous Version | Text Only | Print | Product List | Glossary Off
Versions: 1 2 3 4 5 6 7 8 9 10 11 12 13 14 15 16 17 18 19 20 21 22 23 24 25 26 27

000
ASUS45 KCYS 222210
RWRWY

WYOMING REGIONAL WEATHER ROUNDUP
NATIONAL WEATHER SERVICE CHEYENNE WY
400 PM MDT TUE APR 22 2014

NOTE:  "FAIR" INDICATES FEW OR NO CLOUDS BELOW 12,000 FEET
WITH NO SIGNIFICANT WEATHER AND/OR OBSTRUCTIONS TO VISIBILITY.

WYZ001-222300-
YELLOWSTONE NATIONAL PARK

CITY           SKY/WX    TMP DP  RH WIND       PRES   REMARKS
LK YELLOWSTONE   N/A     49  29  46 CALM      29.70F
W YELLOWSTONE  NOT AVBL

$$
WYZ002>013-054>058-071-098>099-222300-
NORTHERN WYOMING

CITY           SKY/WX    TMP DP  RH WIND       PRES   REMARKS
JACKSON        MOSUNNY   61  32  33 S6        29.61F
CODY           PTSUNNY   70  36  28 SE12G21   29.56F
GREYBULL       MOSUNNY   75  31  19 S15       29.54F
WORLAND        PTSUNNY   73  37  27 SE14      29.56F
SHERIDAN         N/A     59  36  41 S20G29      N/A
BUFFALO        PTSUNNY   70  34  26 SE9       29.63F
GILLETTE       CLOUDY    73  40  30 S15       29.62F
HULETT         FAIR      72  34  25 SW7G16    29.66
NEWCASTLE      FAIR      70  34  26 S12       29.69

$$
WYZ014>020-022>026-101>103-222300-
CENTRAL WYOMING

CITY           SKY/WX    TMP DP  RH WIND       PRES   REMARKS
BIG PINEY      CLOUDY    63  26  24 SW18      29.71F
PINEDALE       CLOUDY    59  28  31 SW15G21   29.72F
DUBOIS         FAIR      59  27  29 SW14G26   29.67F
LANDER         CLOUDY    67  36  31 S28G39    29.64F
RIVERTON       CLOUDY    65  33  30 S18G25    29.64F
CASPER         CLOUDY    70  33  25 SW22G32   29.67F
DOUGLAS        CLOUDY    62  44  51 E14       29.74S THUNDER

$$
WYZ021-027>030-104>119-222300-
SOUTHERN WYOMING

CITY           SKY/WX    TMP DP  RH WIND       PRES   REMARKS
EVANSTON       CLOUDY    63  20  19 S26G39    29.68F
KEMMERER       CLOUDY    61  23  23 SW21G29   29.72F
FORT BRIDGER   CLOUDY    67  18  15 SW18      29.72F
ROCK SPRINGS   CLOUDY    65  22  19 S29G38    29.73F
DIXON          MOCLDY    69  28  21 SW22G37   29.80F
RAWLINS        CLOUDY    65  29  25 SW18G32   29.77F
SARATOGA       FAIR      63  34  34 SE13G21   29.82F
LARAMIE        CLOUDY    62  30  29 S18       29.84F
CHEYENNE       PTSUNNY   70  31  23 SW16      29.80F
TORRINGTON     CLOUDY    77  38  24 W9        29.69F
PINE BLUFFS    FAIR      77  28  16 S12G21    29.76F

$$



USA.gov is the U.S. government's official web portal to all federal, state and local government web resources and services.